M0UPS-13 Weather Reports


Display with metric or nautical units.
time (UTC)temp
F
wind
direction
speed
MPH
gust
MPH
rain 1hr
in
rain 24hr
in
rain mn
in
humidity
%
barometer
mb
20260506084002 58 237 1.0 4.0 0.00 0.00 0.00 58 1013.5
20260506083502 58 122 3.0 5.0 0.00 0.00 0.00 52 1013.4
20260506083002 57 279 2.0 4.0 0.00 0.00 0.00 54 1013.4
20260506082502 55 250 1.0 3.0 0.00 0.00 0.00 60 1013.4
20260506082002 55 303 3.0 5.0 0.00 0.00 0.00 59 1013.3
20260506081503 55 263 1.0 3.0 0.00 0.00 0.00 60 1013.3
20260506081002 55 159 1.0 4.0 0.00 0.00 0.00 62 1013.5
20260506080502 54 45 3.0 6.0 0.00 0.00 0.00 62 1013.4
20260506073502 51 282 1.0 2.0 0.00 0.00 0.00 70 1013.5
20260506073002 50 280 1.0 3.0 0.00 0.00 0.00 71 1013.5
20260506072502 50 243 1.0 2.0 0.00 0.00 0.00 72 1013.5
20260506072002 50 277 0.0 3.0 0.00 0.00 0.00 72 1013.4
20260506071502 50 288 0.0 3.0 0.00 0.00 0.00 71 1013.6
20260506071002 50 243 0.0 0.0 0.00 0.00 0.00 73 1013.6
20260506070502 49 257 1.0 4.0 0.00 0.00 0.00 72 1013.4
20260506062503 49 255 1.0 2.0 0.00 0.00 0.00 73 1013.3
20260506062002 49 274 1.0 5.0 0.00 0.00 0.00 73 1013.4
20260506061502 48 252 1.0 2.0 0.00 0.00 0.00 73 1013.2
20260506061002 49 283 1.0 2.0 0.00 0.00 0.00 73 1013.3
20260506060502 49 120 1.0 4.0 0.00 0.00 0.00 72 1013.4
20260506051002 47 250 0.0 2.0 0.00 0.00 0.00 78 1013.1
20260506050502 47 257 0.0 0.0 0.00 0.00 0.00 78 1013.0
20260506045002 47 27 2.0 2.0 0.00 0.00 0.00 78 1013.0
20260506044502 47 288 1.0 3.0 0.00 0.00 0.00 78 1012.9
20260506044002 47 246 1.0 2.0 0.00 0.00 0.00 78 1013.0
20260506043502 47 244 1.0 2.0 0.00 0.00 0.00 78 1013.1
20260506043002 48 282 0.0 0.0 0.00 0.00 0.00 78 1013.0
20260506042502 48 246 0.0 2.0 0.00 0.00 0.00 77 1012.9
20260506042002 48 225 0.0 3.0 0.00 0.00 0.00 77 1013.0
20260506041502 48 234 1.0 2.0 0.00 0.00 0.00 77 1012.9
20260506041002 48 245 1.0 2.0 0.00 0.00 0.00 77 1013.0
20260506040502 48 261 1.0 3.0 0.00 0.00 0.00 77 1012.9
20260506040003 48 250 0.0 3.0 0.00 0.00 0.00 77 1012.9
20260506035502 48 210 1.0 2.0 0.00 0.00 0.00 76 1012.8
20260506035002 48 261 0.0 0.0 0.00 0.00 0.00 75 1012.8
20260506034502 48 252 0.0 2.0 0.00 0.00 0.00 75 1012.8
20260506034002 48 256 0.0 2.0 0.00 0.00 0.00 74 1012.8
20260506033502 48 260 0.0 2.0 0.00 0.00 0.00 73 1012.5
20260506033002 49 256 0.0 0.0 0.00 0.00 0.00 73 1012.6
20260506032502 49 13 1.0 3.0 0.00 0.00 0.00 72 1012.8
20260506032002 49 58 1.0 3.0 0.00 0.00 0.00 73 1012.8
20260506031502 49 31 1.0 5.0 0.00 0.00 0.00 73 1012.8
20260506031002 49 239 2.0 3.0 0.00 0.00 0.00 74 1012.9
20260506030502 49 15 3.0 4.0 0.00 0.00 0.00 75 1012.6
20260506030002 49 263 1.0 2.0 0.00 0.00 0.00 76 1012.8
20260506025502 50 267 0.0 2.0 0.00 0.00 0.00 76 1012.9
20260506025002 50 270 0.0 0.0 0.00 0.00 0.00 75 1012.9
20260506024502 50 301 1.0 2.0 0.00 0.00 0.00 75 1012.8
20260506024002 50 257 0.0 0.0 0.00 0.00 0.00 75 1012.8
20260506023502 50 288 0.0 2.0 0.00 0.00 0.00 75 1012.6
20260506023002 51 300 0.0 4.0 0.00 0.00 0.00 75 1013.0
20260506022502 51 327 2.0 5.0 0.00 0.00 0.00 74 1013.0
20260506022002 51 33 2.0 3.0 0.00 0.00 0.00 75 1012.6
20260506021502 51 136 1.0 3.0 0.00 0.00 0.00 75 1012.9
20260506021004 51 77 3.0 7.0 0.00 0.00 0.00 75 1013.0
20260506020502 51 280 1.0 4.0 0.00 0.00 0.00 75 1013.1
20260506020002 51 5 2.0 3.0 0.00 0.00 0.00 74 1012.9
20260506015502 51 343 1.0 3.0 0.00 0.00 0.00 74 1013.0
20260506015003 51 23 2.0 5.0 0.00 0.00 0.00 74 1013.0
20260506014502 51 2 2.0 4.0 0.00 0.00 0.00 74 1013.1
20260506014002 51 257 0.0 4.0 0.00 0.00 0.00 74 1013.1
20260506013502 51 342 1.0 2.0 0.00 0.00 0.00 73 1013.0
20260506013002 51 143 2.0 5.0 0.00 0.00 0.00 73 1013.1
20260506012502 51 25 1.0 4.0 0.00 0.00 0.00 73 1013.3
20260506012002 51 46 2.0 7.0 0.00 0.00 0.00 72 1013.3
20260506011502 51 257 1.0 3.0 0.00 0.00 0.00 72 1013.3
20260506011002 51 323 1.0 4.0 0.00 0.00 0.00 71 1013.2
20260506010502 51 296 1.0 5.0 0.00 0.00 0.00 71 1013.2
20260506010002 51 299 0.0 2.0 0.00 0.00 0.00 72 1013.3
20260506005502 51 299 1.0 2.0 0.00 0.00 0.00 72 1013.2
20260506005002 51 263 1.0 3.0 0.00 0.00 0.00 71 1013.3
20260506004503 51 54 3.0 4.0 0.00 0.00 0.00 71 1013.1
20260506004002 51 173 2.0 3.0 0.00 0.00 0.00 71 1013.4
20260506003502 52 316 1.0 4.0 0.00 0.00 0.00 71 1013.3
20260506003002 52 316 1.0 4.0 0.00 0.00 0.00 71 1013.3
20260506002502 52 307 1.0 3.0 0.00 0.00 0.00 70 1013.3
20260506002002 52 305 1.0 3.0 0.00 0.00 0.00 71 1013.4
20260506001502 52 27 2.0 3.0 0.00 0.00 0.00 70 1013.1
20260506001002 52 3 2.0 5.0 0.00 0.00 0.00 70 1013.4
20260506000502 52 282 1.0 3.0 0.00 0.00 0.00 70 1013.4
20260506000003 52 308 1.0 4.0 0.00 0.00 0.00 69 1013.4
20260505235502 52 298 0.0 3.0 0.00 0.00 0.00 69 1013.3
20260505235002 52 322 2.0 5.0 0.00 0.00 0.00 69 1013.2
20260505234502 52 77 2.0 4.0 0.00 0.00 0.00 69 1013.3
20260505234002 52 339 1.0 6.0 0.00 0.00 0.00 69 1013.3
20260505233502 52 140 1.0 4.0 0.00 0.00 0.00 69 1013.1
20260505233002 52 69 1.0 3.0 0.00 0.00 0.00 68 1013.2
20260505232502 52 336 6.0 9.0 0.00 0.00 0.00 68 1013.1
20260505232002 53 326 2.0 3.0 0.00 0.00 0.00 69 1013.1
20260505231502 53 16 3.0 9.0 0.00 0.00 0.00 69 1013.1
20260505231002 53 353 2.0 3.0 0.00 0.00 0.00 72 1013.4
20260505230502 53 322 3.0 6.0 0.00 0.00 0.00 74 1013.2
20260505230002 53 292 2.0 4.0 0.00 0.00 0.00 75 1013.3
20260505225502 53 314 1.0 4.0 0.00 0.00 0.00 75 1013.1
20260505225002 53 329 2.0 3.0 0.00 0.00 0.00 74 1013.2
20260505224502 53 4 2.0 4.0 0.00 0.00 0.00 74 1013.3
20260505224002 53 335 3.0 5.0 0.00 0.00 0.00 73 1013.3
20260505223502 53 335 2.0 4.0 0.00 0.00 0.00 73 1013.2
20260505223002 53 74 2.0 7.0 0.00 0.00 0.00 72 1013.3
20260505222502 53 128 5.0 9.0 0.00 0.00 0.00 72 1013.5
20260505222002 53 35 4.0 6.0 0.00 0.00 0.00 74 1013.4
20260505221502 53 359 3.0 5.0 0.00 0.00 0.00 75 1013.3
20260505221002 53 343 1.0 5.0 0.00 0.00 0.00 75 1013.1
20260505220502 54 10 1.0 5.0 0.00 0.00 0.00 75 1013.3
20260505220002 54 52 2.0 6.0 0.00 0.00 0.00 74 1013.3
20260505215502 54 118 2.0 6.0 0.00 0.00 0.00 71 1013.2
20260505215002 54 262 1.0 5.0 0.00 0.00 0.00 68 1013.3
20260505214502 55 333 1.0 4.0 0.00 0.00 0.00 66 1013.2
20260505214002 55 95 2.0 5.0 0.00 0.00 0.00 66 1013.1
20260505213502 55 32 2.0 5.0 0.00 0.00 0.00 66 1012.9
20260505213002 54 308 1.0 4.0 0.00 0.00 0.00 66 1013.0
20260505212502 54 225 0.0 2.0 0.00 0.00 0.00 67 1012.9
20260505212002 54 264 0.0 2.0 0.00 0.00 0.00 67 1012.9
20260505211502 54 285 2.0 3.0 0.00 0.00 0.00 67 1013.0
20260505211002 54 223 1.0 3.0 0.00 0.00 0.00 68 1013.0
20260505210502 54 71 2.0 4.0 0.00 0.00 0.00 68 1012.9
20260505210002 54 193 1.0 3.0 0.00 0.00 0.00 68 1012.9
20260505205502 55 167 2.0 4.0 0.00 0.00 0.00 68 1012.9
20260505205002 55 311 1.0 3.0 0.00 0.00 0.00 67 1013.0
20260505204502 55 117 3.0 5.0 0.00 0.00 0.00 65 1012.9
20260505204002 56 58 2.0 5.0 0.00 0.00 0.00 64 1012.9
20260505203502 56 94 2.0 6.0 0.00 0.00 0.00 63 1012.6
20260505203002 56 18 1.0 3.0 0.00 0.00 0.00 62 1012.8
20260505202502 56 39 3.0 4.0 0.00 0.00 0.00 61 1012.6
20260505202002 56 70 4.0 5.0 0.00 0.00 0.00 61 1012.5
20260505201502 56 40 2.0 6.0 0.00 0.00 0.00 61 1012.6
20260505201002 57 70 2.0 5.0 0.00 0.00 0.00 61 1012.4
20260505200502 57 21 4.0 5.0 0.00 0.00 0.00 59 1012.6
20260505200002 57 302 1.0 6.0 0.00 0.00 0.00 57 1012.4
20260505195502 57 331 1.0 4.0 0.00 0.00 0.00 57 1012.1
20260505195002 57 20 3.0 5.0 0.00 0.00 0.00 56 1012.1
20260505194502 57 211 1.0 4.0 0.00 0.00 0.00 55 1012.1
20260505194002 57 210 0.0 2.0 0.00 0.00 0.00 56 1011.9
20260505193504 57 211 0.0 2.0 0.00 0.00 0.00 56 1011.9
20260505193002 57 211 0.0 0.0 0.00 0.00 0.00 56 1011.7
20260505192502 58 211 0.0 0.0 0.00 0.00 0.00 56 1011.7
20260505192002 58 211 0.0 0.0 0.00 0.00 0.00 55 1011.8
20260505191502 58 214 0.0 0.0 0.00 0.00 0.00 56 1011.7
20260505191002 58 257 0.0 2.0 0.00 0.00 0.00 55 1011.7
20260505190502 58 258 1.0 2.0 0.00 0.00 0.00 54 1011.7
20260505190003 58 293 0.0 3.0 0.00 0.00 0.00 53 1011.7
20260505185502 58 36 1.0 3.0 0.00 0.00 0.00 53 1011.7
20260505185002 58 265 1.0 3.0 0.00 0.00 0.00 53 1011.7
20260505184502 58 198 0.0 2.0 0.00 0.00 0.00 53 1011.6
20260505184002 58 303 1.0 2.0 0.00 0.00 0.00 53 1011.6
20260505183502 58 259 1.0 2.0 0.00 0.00 0.00 53 1011.6
20260505183002 59 331 2.0 3.0 0.00 0.00 0.00 52 1011.5
20260505182502 58 152 3.0 4.0 0.00 0.00 0.00 52 1011.6
20260505182002 59 188 2.0 2.0 0.00 0.00 0.00 52 1011.6
20260505181502 59 217 1.0 2.0 0.00 0.00 0.00 52 1011.6
20260505181002 59 236 1.0 2.0 0.00 0.00 0.00 52 1011.6
20260505180503 59 185 2.0 4.0 0.00 0.00 0.00 52 1011.6
20260505180002 59 234 1.0 3.0 0.00 0.00 0.00 52 1011.6
20260505175502 59 325 1.0 4.0 0.00 0.00 0.00 52 1011.5
20260505175002 59 226 1.0 4.0 0.00 0.00 0.00 51 1011.6
20260505174502 59 94 0.0 4.0 0.00 0.00 0.00 51 1011.6
20260505174002 60 232 1.0 2.0 0.00 0.00 0.00 51 1011.6
20260505173502 60 336 1.0 4.0 0.00 0.00 0.00 50 1011.7
20260505173002 60 53 3.0 4.0 0.00 0.00 0.00 50 1011.6
20260505172502 60 79 3.0 5.0 0.00 0.00 0.00 49 1011.7
20260505172002 60 154 2.0 4.0 0.00 0.00 0.00 49 1011.6
20260505171502 60 122 2.0 4.0 0.00 0.00 0.00 49 1011.6
20260505171002 60 324 1.0 4.0 0.00 0.00 0.00 49 1011.6
20260505170502 60 199 2.0 3.0 0.00 0.00 0.00 49 1011.7
20260505170002 61 290 1.0 3.0 0.00 0.00 0.00 49 1011.6
20260505165502 61 232 2.0 3.0 0.00 0.00 0.00 49 1011.7
20260505165002 61 259 1.0 4.0 0.00 0.00 0.00 50 1011.6
20260505164502 61 253 0.0 2.0 0.00 0.00 0.00 50 1011.7
20260505164002 61 31 2.0 4.0 0.00 0.00 0.00 48 1011.5
20260505163504 61 249 1.0 3.0 0.00 0.00 0.00 51 1011.6
20260505163002 61 44 1.0 3.0 0.00 0.00 0.00 49 1011.5
20260505162502 61 228 1.0 2.0 0.00 0.00 0.00 49 1011.5
20260505162002 61 97 1.0 4.0 0.00 0.00 0.00 49 1011.7
20260505161502 61 309 1.0 3.0 0.00 0.00 0.00 49 1011.7
20260505161002 61 118 3.0 4.0 0.00 0.00 0.00 47 1011.7
20260505160502 62 204 1.0 4.0 0.00 0.00 0.00 48 1011.5
20260505153002 61 66 0.0 3.0 0.00 0.00 0.00 49 1011.8
20260505152503 61 233 1.0 3.0 0.00 0.00 0.00 48 1011.7
20260505152002 61 350 2.0 3.0 0.00 0.00 0.00 48 1011.8
20260505151502 61 300 1.0 2.0 0.00 0.00 0.00 49 1011.7
20260505151002 61 248 0.0 5.0 0.00 0.00 0.00 49 1011.7
20260505150502 61 249 0.0 6.0 0.00 0.00 0.00 50 1011.8
20260505140502 62 216 1.0 2.0 0.00 0.00 0.00 50 1012.0
20260505125002 63 117 2.0 3.0 0.00 0.00 0.00 48 1012.2
20260505124502 64 280 2.0 4.0 0.00 0.00 0.00 49 1012.3
20260505124002 63 290 0.0 3.0 0.00 0.00 0.00 52 1012.4
20260505123502 64 247 1.0 3.0 0.00 0.00 0.00 50 1012.2
20260505123002 64 270 1.0 5.0 0.00 0.00 0.00 50 1012.3
20260505122503 63 264 0.0 2.0 0.00 0.00 0.00 50 1012.3
20260505122003 62 280 1.0 4.0 0.00 0.00 0.00 50 1012.2
20260505121502 62 257 0.0 2.0 0.00 0.00 0.00 52 1012.3
20260505121002 62 27 3.0 6.0 0.00 0.00 0.00 49 1012.3
20260505120502 64 86 5.0 9.0 0.00 0.00 0.00 47 1012.5
20260505120002 63 323 1.0 2.0 0.00 0.00 0.00 50 1012.3
20260505115502 63 105 3.0 4.0 0.00 0.00 0.00 50 1012.3
20260505115002 63 98 3.0 5.0 0.00 0.00 0.00 50 1012.3
20260505114502 63 195 2.0 4.0 0.00 0.00 0.00 51 1012.5
20260505114002 63 353 2.0 2.0 0.00 0.00 0.00 49 1012.2
20260505113502 63 110 1.0 6.0 0.00 0.00 0.00 49 1012.4
20260505113002 62 261 1.0 4.0 0.00 0.00 0.00 51 1012.6
20260505112502 63 182 1.0 4.0 0.00 0.00 0.00 48 1012.4
20260505112002 64 71 3.0 6.0 0.00 0.00 0.00 48 1012.5
20260505111502 64 286 0.0 5.0 0.00 0.00 0.00 52 1012.4
20260505111002 64 242 0.0 4.0 0.00 0.00 0.00 52 1012.6
20260505110502 64 276 3.0 4.0 0.00 0.00 0.00 50 1012.6
20260505102002 62 263 1.0 3.0 0.00 0.00 0.00 58 1013.0
20260505101503 62 304 1.0 4.0 0.00 0.00 0.00 57 1013.0
20260505101002 62 286 0.0 4.0 0.00 0.00 0.00 59 1013.1
20260505100502 64 288 2.0 5.0 0.00 0.00 0.00 53 1013.3
20260505100002 63 270 1.0 2.0 0.00 0.00 0.00 56 1013.0
20260505095502 61 240 1.0 4.0 0.00 0.00 0.00 59 1013.4
20260505095002 60 270 0.0 3.0 0.00 0.00 0.00 62 1013.1
20260505094502 61 80 2.0 4.0 0.00 0.00 0.00 60 1013.3
20260505094002 62 262 1.0 4.0 0.00 0.00 0.00 59 1013.3
20260505093502 61 273 2.0 3.0 0.00 0.00 0.00 63 1013.4
20260505093002 60 260 1.0 4.0 0.00 0.00 0.00 63 1013.2
20260505092502 59 54 2.0 4.0 0.00 0.00 0.00 63 1013.3
20260505092002 58 251 1.0 2.0 0.00 0.00 0.00 68 1013.2
20260505091502 58 232 1.0 3.0 0.00 0.00 0.00 68 1013.5
20260505091002 58 280 1.0 4.0 0.00 0.00 0.00 67 1013.4
20260505090502 58 63 2.0 6.0 0.00 0.00 0.00 65 1013.4
20260505090002 57 285 1.0 2.0 0.00 0.00 0.00 69 1013.5
20260505085502 57 241 0.0 2.0 0.00 0.00 0.00 69 1013.5
20260505085002 56 195 2.0 5.0 0.00 0.00 0.00 69 1013.6
20260505084502 56 37 3.0 5.0 0.00 0.00 0.00 70 1013.6